[[{"header":{"parameterUnit":"m.s-1","parameterCategory":2,"la1":30.2992,"la2":30.254,"lo1":-89.0895,"lo2":-89.0443,"dy":0.0025,"dx":0.0025,"nx":19,"ny":19,"refTime":"2026-03-28T09:00:00:Z","depth":"0","parameterNumber":2,"parameterNumberName":"U-component_of_CURRENTS"},"data":[0,0,0,-0.1478,-0.1479,-0.1508,-0.1508,-0.1546,-0.1546,0,0,0,0,0,0,0,0,0,0,0,-0.1463,-0.1463,-0.1478,-0.1479,-0.1508,-0.1508,-0.1546,-0.1546,0,0,0,0,0,0,0,0,0,0,0,-0.1463,-0.1463,-0.1463,-0.1479,-0.1508,-0.1508,-0.1546,-0.1523,0,0,0,0,0,0,0,0,0,0,-0.1495,-0.1475,-0.1463,-0.1463,-0.1479,-0.1508,-0.1508,-0.1522,-0.1525,-0.1533,0,-0.1536,0,-0.1545,-0.1549,-0.1549,0,0,0,-0.1477,-0.1473,-0.1488,-0.1463,-0.148,-0.1508,-0.1495,-0.1523,-0.1526,-0.1537,-0.1536,-0.1538,-0.1546,-0.1549,-0.1549,-0.1605,-0.1606,0,0,-0.1476,-0.1463,-0.1486,-0.149,-0.1485,-0.1494,-0.1496,-0.1525,-0.1523,-0.1536,-0.1539,-0.1547,-0.1549,-0.155,-0.1605,-0.1606,0,0,0,-0.1472,-0.1461,-0.1475,-0.1488,-0.1495,-0.1495,-0.1497,-0.1521,-0.1528,-0.1539,-0.1547,-0.155,-0.155,-0.1605,-0.1605,-0.1614,0,0,0,-0.1471,-0.146,-0.1474,-0.1466,-0.1495,-0.1508,-0.1492,-0.1526,-0.153,-0.1547,-0.155,-0.1551,-0.1604,-0.1605,-0.1613,-0.1612,0,0,0,-0.1462,-0.1459,-0.1463,-0.1466,-0.1481,-0.1508,-0.1515,-0.1527,-0.1535,-0.1549,-0.1551,-0.1604,-0.1605,-0.1613,-0.1611,-0.1628,0,0,0,-0.1447,-0.1458,-0.1462,-0.1481,-0.148,-0.1519,-0.1515,-0.1539,-0.1552,-0.155,-0.1605,-0.1605,-0.1612,-0.161,-0.1627,-0.1556,-0.1554,0,0,-0.1456,-0.1458,-0.1473,-0.1478,-0.1514,-0.1515,-0.1552,-0.1563,-0.1567,-0.1594,-0.1595,-0.1614,-0.1611,-0.1627,-0.1599,-0.1596,0,0,0,-0.1474,-0.1478,-0.1492,-0.1511,-0.154,-0.1561,-0.1575,-0.1584,-0.1605,-0.1579,-0.1626,-0.1625,-0.1634,-0.159,-0.1588,-0.1545,-0.1609,-0.1609,-0.1609,-0.1453,-0.1481,-0.1502,-0.1534,-0.156,-0.1594,-0.1611,-0.1626,-0.1628,-0.164,-0.1642,-0.1673,-0.1626,-0.1624,-0.1581,-0.1656,-0.1656,-0.1656,-0.1656,-0.1457,-0.1463,-0.1502,-0.1529,-0.1564,-0.1593,-0.164,-0.1647,-0.1676,-0.1667,-0.1677,-0.1614,-0.1622,-0.1577,-0.1656,-0.1656,-0.1656,-0.1656,-0.1656,-0.1428,-0.1433,-0.1459,-0.1498,-0.1536,-0.1583,-0.1619,-0.1657,-0.1678,-0.1691,-0.1648,-0.1646,-0.1598,-0.1699,-0.1699,-0.1699,-0.1699,-0.1699,-0.1699,-0.1378,-0.1407,-0.1413,-0.1465,-0.1482,-0.153,-0.1607,-0.1634,-0.1654,-0.1652,-0.1651,-0.16,-0.1686,-0.1674,-0.17,-0.17,-0.17,-0.17,-0.17,-0.1318,-0.1339,-0.1345,-0.1361,-0.1413,-0.1425,-0.1529,-0.157,-0.1615,-0.1607,-0.1547,-0.1632,-0.1622,-0.1622,-0.1609,-0.1618,-0.1618,-0.1618,-0.1618,-0.1262,-0.128,-0.1266,-0.1275,-0.1311,-0.1368,-0.1369,-0.1426,-0.1465,-0.1447,-0.1491,-0.1456,-0.1461,-0.144,-0.1445,-0.1428,-0.1391,-0.139,-0.139,-0.1205,-0.1219,-0.118,-0.1211,-0.125,-0.1282,-0.1243,-0.1273,-0.1338,-0.138,-0.1448,-0.1458,-0.1407,-0.1419,-0.1387,-0.1397,-0.137,0,0]},{"header":{"parameterUnit":"m.s-1","parameterCategory":2,"la1":30.2992,"la2":30.254,"lo1":-89.0895,"lo2":-89.0443,"dy":0.0025,"dx":0.0025,"nx":19,"ny":19,"refTime":"2026-03-28T09:00:00:Z","depth":"0","parameterNumber":3,"parameterNumberName":"V-component_of_CURRENTS"},"data":[0,0,0,-0.0356,-0.0356,-0.0332,-0.0332,-0.0283,-0.0283,0,0,0,0,0,0,0,0,0,0,0,-0.0363,-0.0363,-0.0356,-0.0356,-0.0332,-0.0332,-0.0283,-0.0283,0,0,0,0,0,0,0,0,0,0,0,-0.0363,-0.0363,-0.0363,-0.0356,-0.0332,-0.0332,-0.0283,-0.0304,0,0,0,0,0,0,0,0,0,0,-0.0329,-0.0342,-0.0363,-0.0363,-0.0356,-0.0332,-0.0332,-0.0305,-0.0303,-0.029,0,-0.029,0,-0.0288,-0.028,-0.0279,0,0,0,-0.0349,-0.0344,-0.0337,-0.0363,-0.0355,-0.0332,-0.0341,-0.0304,-0.0301,-0.0287,-0.029,-0.0288,-0.0287,-0.0279,-0.0279,-0.0255,-0.0255,0,0,-0.035,-0.0357,-0.0339,-0.0335,-0.0353,-0.0342,-0.034,-0.0302,-0.0301,-0.0289,-0.0287,-0.0287,-0.0279,-0.0279,-0.0255,-0.0255,0,0,0,-0.0359,-0.0358,-0.0352,-0.0337,-0.0336,-0.0341,-0.034,-0.0303,-0.0301,-0.0286,-0.0286,-0.0279,-0.0278,-0.0255,-0.0255,-0.0306,0,0,0,-0.0359,-0.0363,-0.0353,-0.0356,-0.0337,-0.0323,-0.0341,-0.0303,-0.0299,-0.0286,-0.0279,-0.0278,-0.0255,-0.0255,-0.0304,-0.0328,0,0,0,-0.0363,-0.0363,-0.0362,-0.0357,-0.035,-0.0323,-0.0319,-0.0302,-0.0299,-0.0279,-0.0278,-0.0255,-0.0255,-0.0303,-0.0325,-0.0309,0,0,0,-0.0368,-0.0384,-0.0362,-0.0381,-0.035,-0.0355,-0.0319,-0.0316,-0.0304,-0.0278,-0.0255,-0.0255,-0.0302,-0.0323,-0.0308,-0.0281,-0.0284,0,0,-0.0395,-0.0387,-0.04,-0.038,-0.0402,-0.0358,-0.0369,-0.0335,-0.03,-0.0264,-0.0264,-0.0305,-0.0325,-0.0309,-0.0293,-0.0296,0,0,0,-0.0413,-0.0424,-0.0426,-0.0431,-0.0421,-0.0409,-0.0373,-0.0349,-0.0316,-0.0294,-0.0294,-0.0305,-0.0294,-0.0275,-0.0277,-0.0172,-0.0256,-0.0256,-0.0256,-0.0454,-0.0455,-0.0481,-0.0479,-0.0474,-0.0443,-0.0424,-0.038,-0.0347,-0.0336,-0.0339,-0.0353,-0.0335,-0.0336,-0.0228,-0.0329,-0.033,-0.033,-0.033,-0.0507,-0.0528,-0.0522,-0.0547,-0.0526,-0.0522,-0.0469,-0.0438,-0.0392,-0.037,-0.0356,-0.0321,-0.0341,-0.0225,-0.0333,-0.0332,-0.0332,-0.0332,-0.0332,-0.0541,-0.0554,-0.0563,-0.0592,-0.0598,-0.0569,-0.0559,-0.0509,-0.0439,-0.0431,-0.0372,-0.0371,-0.0272,-0.0414,-0.0414,-0.0414,-0.0414,-0.0414,-0.0414,-0.0571,-0.0585,-0.0618,-0.0639,-0.0655,-0.0656,-0.0609,-0.0567,-0.0478,-0.042,-0.0419,-0.0261,-0.0378,-0.0379,-0.0415,-0.0414,-0.0414,-0.0414,-0.0414,-0.0618,-0.0617,-0.0671,-0.0694,-0.0729,-0.0739,-0.069,-0.0581,-0.0515,-0.0454,-0.026,-0.0396,-0.0369,-0.0366,-0.0366,-0.0396,-0.0396,-0.0396,-0.0396,-0.0642,-0.0649,-0.0713,-0.0757,-0.0793,-0.0778,-0.0736,-0.0613,-0.0371,-0.0245,-0.0193,-0.0162,-0.0168,-0.0126,-0.0129,-0.0122,-0.009,-0.0089,-0.0089,-0.0668,-0.0687,-0.0733,-0.0777,-0.0821,-0.0813,-0.0772,-0.064,-0.0276,-0.0066,-0.0053,-0.0066,-0.001,-0.0027,0.0046,0.0034,0.0047,0,0]}],[{"header":{"parameterUnit":"m.s-1","parameterCategory":2,"la1":30.2992,"la2":30.254,"lo1":-89.0895,"lo2":-89.0443,"dy":0.0025,"dx":0.0025,"nx":19,"ny":19,"refTime":"2026-03-28T09:00:00:Z","depth":"2","parameterNumber":2,"parameterNumberName":"U-component_of_CURRENTS"},"data":[0,0,0,-0.1368,-0.1369,-0.1402,-0.1402,-0.1442,-0.1442,0,0,0,0,0,0,0,0,0,0,0,-0.1352,-0.1352,-0.1368,-0.1369,-0.1402,-0.1402,-0.1442,-0.1442,0,0,0,0,0,0,0,0,0,0,0,-0.1352,-0.1352,-0.1352,-0.1369,-0.1402,-0.1402,-0.1442,-0.1417,0,0,0,0,0,0,0,0,0,0,-0.1385,-0.1366,-0.1352,-0.1352,-0.1369,-0.1402,-0.1402,-0.1416,-0.1418,-0.1426,0,-0.143,0,-0.1439,-0.1445,-0.1445,0,0,0,-0.1368,-0.1364,-0.1379,-0.1353,-0.137,-0.1402,-0.1387,-0.1417,-0.142,-0.143,-0.143,-0.1432,-0.144,-0.1445,-0.1445,-0.1501,-0.1501,0,0,-0.1366,-0.1354,-0.1377,-0.1381,-0.1377,-0.1386,-0.1388,-0.1419,-0.1418,-0.143,-0.1433,-0.1441,-0.1445,-0.1446,-0.15,-0.1501,0,0,0,-0.1361,-0.1352,-0.1366,-0.1379,-0.1387,-0.1387,-0.1389,-0.1417,-0.1423,-0.1433,-0.1441,-0.1446,-0.1446,-0.15,-0.15,-0.1509,0,0,0,-0.136,-0.135,-0.1365,-0.1358,-0.1386,-0.1402,-0.1386,-0.142,-0.1425,-0.1441,-0.1446,-0.1446,-0.15,-0.15,-0.1508,-0.1504,0,0,0,-0.1351,-0.1349,-0.1354,-0.1357,-0.1374,-0.1402,-0.1409,-0.1421,-0.1429,-0.1445,-0.1446,-0.1499,-0.15,-0.1507,-0.1503,-0.1516,0,0,0,-0.1337,-0.1348,-0.1353,-0.1372,-0.1373,-0.1412,-0.1409,-0.1434,-0.1449,-0.1446,-0.15,-0.15,-0.1506,-0.1503,-0.1516,-0.1431,-0.1428,0,0,-0.1346,-0.1348,-0.1362,-0.1369,-0.1403,-0.1407,-0.1444,-0.1458,-0.1463,-0.1488,-0.1489,-0.1508,-0.1503,-0.1516,-0.1474,-0.1469,0,0,0,-0.1363,-0.1367,-0.1381,-0.1401,-0.143,-0.1451,-0.1468,-0.1478,-0.15,-0.1475,-0.1521,-0.1517,-0.1525,-0.1473,-0.147,-0.1504,-0.1504,-0.1504,-0.1504,-0.1345,-0.1371,-0.1391,-0.1422,-0.1448,-0.1483,-0.1501,-0.1517,-0.1521,-0.1534,-0.1534,-0.1562,-0.1507,-0.1503,-0.1549,-0.1549,-0.1549,-0.1549,-0.1549,-0.1349,-0.1355,-0.1391,-0.1419,-0.1453,-0.1482,-0.1528,-0.1536,-0.1563,-0.1558,-0.1566,-0.1496,-0.15,-0.155,-0.155,-0.155,-0.1549,-0.1549,-0.1549,-0.1322,-0.1327,-0.1352,-0.139,-0.1427,-0.1473,-0.1503,-0.1542,-0.1565,-0.1576,-0.1523,-0.1521,-0.1558,-0.1583,-0.1583,-0.1583,-0.1583,-0.1583,-0.1583,-0.1275,-0.1303,-0.1309,-0.136,-0.1375,-0.1419,-0.149,-0.1511,-0.1526,-0.1523,-0.1522,-0.1573,-0.1572,-0.156,-0.1584,-0.1584,-0.1584,-0.1584,-0.1584,-0.1221,-0.1241,-0.1245,-0.1259,-0.1304,-0.1302,-0.14,-0.1424,-0.1467,-0.1452,-0.1493,-0.1495,-0.1483,-0.1484,-0.1471,-0.147,-0.147,-0.147,-0.147,-0.1169,-0.1187,-0.117,-0.1174,-0.1197,-0.1239,-0.1207,-0.1236,-0.1309,-0.1312,-0.1319,-0.1284,-0.1292,-0.1268,-0.1274,-0.1256,-0.12,-0.1199,-0.1199,-0.1118,-0.1128,-0.1089,-0.1112,-0.1134,-0.114,-0.106,-0.102,-0.108,-0.1189,-0.1279,-0.1451,-0.1417,-0.1423,-0.14,-0.1405,-0.1381,0,0]},{"header":{"parameterUnit":"m.s-1","parameterCategory":2,"la1":30.2992,"la2":30.254,"lo1":-89.0895,"lo2":-89.0443,"dy":0.0025,"dx":0.0025,"nx":19,"ny":19,"refTime":"2026-03-28T09:00:00:Z","depth":"2","parameterNumber":3,"parameterNumberName":"V-component_of_CURRENTS"},"data":[0,0,0,-0.0189,-0.0188,-0.0167,-0.0167,-0.0117,-0.0116,0,0,0,0,0,0,0,0,0,0,0,-0.0195,-0.0195,-0.0189,-0.0188,-0.0167,-0.0167,-0.0117,-0.0116,0,0,0,0,0,0,0,0,0,0,0,-0.0195,-0.0195,-0.0195,-0.0188,-0.0167,-0.0167,-0.0117,-0.0137,0,0,0,0,0,0,0,0,0,0,-0.016,-0.0174,-0.0195,-0.0195,-0.0188,-0.0167,-0.0167,-0.0138,-0.0136,-0.0122,0,-0.0123,0,-0.0122,-0.0113,-0.0113,0,0,0,-0.0181,-0.0176,-0.0169,-0.0195,-0.0188,-0.0167,-0.0175,-0.0137,-0.0134,-0.0119,-0.0123,-0.0121,-0.0121,-0.0113,-0.0112,-0.0094,-0.0095,0,0,-0.0182,-0.019,-0.0171,-0.0168,-0.0188,-0.0175,-0.0174,-0.0135,-0.0135,-0.0122,-0.012,-0.012,-0.0112,-0.0112,-0.0094,-0.0095,0,0,0,-0.019,-0.0191,-0.0185,-0.017,-0.0169,-0.0175,-0.0173,-0.0136,-0.0135,-0.0119,-0.0119,-0.0112,-0.0111,-0.0094,-0.0094,-0.0146,0,0,0,-0.0191,-0.0196,-0.0186,-0.019,-0.017,-0.0157,-0.0176,-0.0137,-0.0133,-0.012,-0.0112,-0.0111,-0.0094,-0.0094,-0.0144,-0.0169,0,0,0,-0.0195,-0.0196,-0.0195,-0.019,-0.0184,-0.0157,-0.0153,-0.0136,-0.0133,-0.0113,-0.0111,-0.0094,-0.0094,-0.0142,-0.0166,-0.0161,0,0,0,-0.02,-0.0216,-0.0196,-0.0214,-0.0185,-0.0189,-0.0153,-0.0151,-0.0138,-0.0112,-0.0094,-0.0094,-0.0142,-0.0164,-0.0159,-0.0146,-0.0151,0,0,-0.0227,-0.022,-0.0231,-0.0213,-0.0233,-0.0191,-0.0203,-0.017,-0.0137,-0.0103,-0.0103,-0.0145,-0.0165,-0.016,-0.0169,-0.0173,0,0,0,-0.0244,-0.0255,-0.0257,-0.0262,-0.0252,-0.0243,-0.0208,-0.0187,-0.0159,-0.0132,-0.0138,-0.0149,-0.0145,-0.0133,-0.0137,-0.0096,-0.0096,-0.0096,-0.0096,-0.0287,-0.0286,-0.0311,-0.0308,-0.0305,-0.0277,-0.0263,-0.0224,-0.019,-0.0185,-0.0187,-0.0213,-0.0202,-0.0205,-0.0179,-0.018,-0.018,-0.018,-0.018,-0.0338,-0.0359,-0.0352,-0.0375,-0.0358,-0.0357,-0.0312,-0.0284,-0.025,-0.0224,-0.0216,-0.0183,-0.0212,-0.0184,-0.0183,-0.0183,-0.0182,-0.0182,-0.0182,-0.0371,-0.0384,-0.0393,-0.0421,-0.0431,-0.0406,-0.0407,-0.036,-0.0299,-0.0296,-0.0251,-0.025,-0.0237,-0.0284,-0.0284,-0.0284,-0.0284,-0.0284,-0.0284,-0.0404,-0.0416,-0.0449,-0.047,-0.0488,-0.0496,-0.046,-0.043,-0.0356,-0.0304,-0.0303,-0.0247,-0.0244,-0.0241,-0.0286,-0.0285,-0.0285,-0.0285,-0.0285,-0.0453,-0.0452,-0.0505,-0.053,-0.057,-0.0587,-0.0549,-0.0469,-0.0416,-0.0369,-0.0294,-0.0293,-0.0269,-0.0265,-0.0262,-0.0309,-0.0309,-0.0309,-0.0309,-0.048,-0.0486,-0.0554,-0.06,-0.064,-0.0631,-0.061,-0.0511,-0.0385,-0.0316,-0.0316,-0.0299,-0.0298,-0.0274,-0.0269,-0.0266,-0.0314,-0.0314,-0.0314,-0.051,-0.0528,-0.0579,-0.0624,-0.0671,-0.0671,-0.0645,-0.0519,-0.0343,-0.0316,-0.0327,-0.0307,-0.0281,-0.028,-0.0238,-0.0234,-0.0226,0,0]}],[{"header":{"parameterUnit":"m.s-1","parameterCategory":2,"la1":30.2992,"la2":30.254,"lo1":-89.0895,"lo2":-89.0443,"dy":0.0025,"dx":0.0025,"nx":19,"ny":19,"refTime":"2026-03-28T09:00:00:Z","depth":"4","parameterNumber":2,"parameterNumberName":"U-component_of_CURRENTS"},"data":[0,0,0,-0.1077,-0.1079,-0.1166,-0.1167,-0.1242,-0.1242,0,0,0,0,0,0,0,0,0,0,0,-0.105,-0.1051,-0.1077,-0.1079,-0.1166,-0.1167,-0.1241,-0.1242,0,0,0,0,0,0,0,0,0,0,0,-0.105,-0.105,-0.1051,-0.108,-0.1166,-0.1167,-0.1241,-0.1185,0,0,0,0,0,0,0,0,0,0,-0.1105,-0.1085,-0.105,-0.1051,-0.108,-0.1166,-0.1167,-0.1183,-0.1189,-0.1191,0,-0.1209,0,-0.1225,-0.1246,-0.1246,0,0,0,-0.1081,-0.108,-0.1103,-0.1051,-0.1081,-0.1166,-0.1128,-0.1186,-0.1193,-0.1199,-0.121,-0.1214,-0.1226,-0.1246,-0.1247,-0.132,-0.132,0,0,-0.1076,-0.1066,-0.1098,-0.1107,-0.1109,-0.1125,-0.113,-0.1191,-0.1199,-0.1211,-0.1215,-0.1228,-0.1247,-0.1247,-0.1319,-0.132,0,0,0,-0.1061,-0.1062,-0.1084,-0.1104,-0.1121,-0.1127,-0.1134,-0.1197,-0.1204,-0.1216,-0.1229,-0.1247,-0.1248,-0.1319,-0.132,-0.1328,0,0,0,-0.1059,-0.1054,-0.1082,-0.1077,-0.1121,-0.1165,-0.1138,-0.12,-0.1208,-0.1228,-0.1247,-0.1249,-0.1319,-0.1319,-0.1327,-0.132,0,0,0,-0.1045,-0.1052,-0.1064,-0.1076,-0.1113,-0.1165,-0.1176,-0.1202,-0.1215,-0.1246,-0.1249,-0.1318,-0.1319,-0.1326,-0.1319,-0.1324,0,0,0,-0.1029,-0.1049,-0.1064,-0.1095,-0.1112,-0.1169,-0.1176,-0.1223,-0.1253,-0.1248,-0.1319,-0.1319,-0.1326,-0.1318,-0.1323,-0.1151,0,0,0,-0.1042,-0.1051,-0.1069,-0.1084,-0.1133,-0.1157,-0.121,-0.1251,-0.1265,-0.1295,-0.1298,-0.1327,-0.1319,-0.1323,-0.1202,0,0,0,0,-0.1065,-0.1078,-0.1097,-0.1131,-0.1172,-0.1211,-0.1253,-0.1272,-0.1313,-0.1286,-0.1342,-0.1336,-0.1339,-0.1238,-0.1324,-0.1323,-0.1323,-0.1323,-0.1323,-0.1057,-0.1085,-0.1117,-0.1158,-0.1197,-0.1255,-0.1285,-0.1318,-0.1332,-0.1354,-0.1355,-0.1378,-0.1273,-0.1373,-0.1373,-0.1373,-0.1373,-0.1373,-0.1373,-0.1063,-0.1074,-0.1123,-0.1165,-0.1214,-0.1261,-0.1319,-0.1338,-0.1374,-0.1379,-0.1381,-0.1268,-0.1374,-0.1374,-0.1374,-0.1374,-0.1374,-0.1374,-0.1374,-0.1036,-0.1044,-0.1086,-0.1144,-0.1201,-0.1263,-0.1291,-0.1345,-0.1375,-0.1385,-0.1279,-0.1382,-0.1368,-0.1392,-0.1392,-0.1392,-0.1392,-0.1392,-0.1392,-0.0981,-0.1023,-0.1048,-0.112,-0.1151,-0.1203,-0.1281,-0.129,-0.1338,-0.1264,-0.1389,-0.1384,-0.1383,-0.1369,-0.1392,-0.1392,-0.1392,-0.1392,-0.1392,-0.0927,-0.0958,-0.0982,-0.1015,-0.1077,-0.1101,-0.1202,-0.1182,-0.118,-0.1141,-0.1198,-0.1207,-0.1185,-0.1189,-0.1167,-0.1131,-0.1129,-0.1127,0,-0.0878,-0.0899,-0.0913,-0.0932,-0.0944,-0.1026,-0.0976,-0.1008,-0.1046,-0.1011,-0.1186,-0.1252,-0.1257,-0.1234,-0.1234,-0.1209,0,0,0,-0.0834,-0.0848,-0.0831,-0.0866,-0.087,-0.0878,-0.0952,-0.0915,-0.105,-0.0988,-0.1072,-0.1087,-0.1274,-0.1392,-0.138,-0.138,-0.1357,0,0]},{"header":{"parameterUnit":"m.s-1","parameterCategory":2,"la1":30.2992,"la2":30.254,"lo1":-89.0895,"lo2":-89.0443,"dy":0.0025,"dx":0.0025,"nx":19,"ny":19,"refTime":"2026-03-28T09:00:00:Z","depth":"4","parameterNumber":3,"parameterNumberName":"V-component_of_CURRENTS"},"data":[0,0,0,-0.0088,-0.0088,-0.0074,-0.0074,-0.0034,-0.0034,0,0,0,0,0,0,0,0,0,0,0,-0.0092,-0.0092,-0.0088,-0.0088,-0.0074,-0.0074,-0.0034,-0.0034,0,0,0,0,0,0,0,0,0,0,0,-0.0092,-0.0092,-0.0092,-0.0088,-0.0074,-0.0074,-0.0034,-0.0048,0,0,0,0,0,0,0,0,0,0,-0.0064,-0.0075,-0.0092,-0.0092,-0.0088,-0.0074,-0.0074,-0.0049,-0.0047,-0.0036,0,-0.0039,0,-0.0038,-0.0031,-0.0031,0,0,0,-0.0081,-0.0077,-0.0072,-0.0092,-0.0088,-0.0074,-0.0078,-0.0048,-0.0046,-0.0034,-0.0038,-0.0037,-0.0037,-0.0031,-0.0031,-0.0026,-0.0026,0,0,-0.0082,-0.0088,-0.0074,-0.0071,-0.009,-0.0079,-0.0078,-0.0047,-0.0048,-0.0038,-0.0036,-0.0037,-0.0031,-0.003,-0.0026,-0.0026,0,0,0,-0.0089,-0.0088,-0.0085,-0.0073,-0.0074,-0.0079,-0.0078,-0.0049,-0.0048,-0.0035,-0.0036,-0.003,-0.003,-0.0025,-0.0026,-0.0074,0,0,0,-0.0089,-0.0093,-0.0085,-0.0089,-0.0075,-0.0065,-0.008,-0.005,-0.0046,-0.0036,-0.003,-0.0029,-0.0025,-0.0026,-0.0072,-0.0096,0,0,0,-0.0091,-0.0093,-0.0093,-0.0089,-0.0086,-0.0066,-0.0062,-0.0049,-0.0047,-0.0031,-0.0029,-0.0025,-0.0025,-0.007,-0.0093,-0.0099,0,0,0,-0.0095,-0.011,-0.0093,-0.0111,-0.0086,-0.0095,-0.0063,-0.0063,-0.0054,-0.003,-0.0025,-0.0026,-0.007,-0.0091,-0.0098,-0.0108,0,0,0,-0.0118,-0.0113,-0.0124,-0.0109,-0.013,-0.0096,-0.0112,-0.0085,-0.0057,-0.0032,-0.0032,-0.0073,-0.0092,-0.0099,-0.0141,0,0,0,0,-0.0134,-0.0143,-0.0147,-0.0154,-0.0149,-0.0147,-0.0119,-0.0104,-0.0086,-0.0055,-0.007,-0.0081,-0.0084,-0.0085,-0.0028,-0.0028,-0.0028,-0.0028,-0.0028,-0.017,-0.017,-0.0195,-0.0196,-0.0198,-0.0182,-0.0175,-0.0148,-0.0117,-0.0117,-0.0119,-0.0155,-0.016,-0.0115,-0.0115,-0.0115,-0.0115,-0.0115,-0.0116,-0.0211,-0.0229,-0.023,-0.0254,-0.0248,-0.0254,-0.0227,-0.0206,-0.0188,-0.016,-0.016,-0.0135,-0.012,-0.0119,-0.0119,-0.0118,-0.0118,-0.0117,-0.0117,-0.0236,-0.0247,-0.0259,-0.0293,-0.0312,-0.0301,-0.0315,-0.0282,-0.0235,-0.0238,-0.0219,-0.0183,-0.0179,-0.0232,-0.0232,-0.0232,-0.0232,-0.0232,-0.0232,-0.0256,-0.0271,-0.0307,-0.0335,-0.036,-0.0379,-0.0366,-0.0352,-0.0304,-0.0276,-0.0248,-0.0194,-0.019,-0.0185,-0.0235,-0.0234,-0.0234,-0.0234,-0.0234,-0.0291,-0.0295,-0.035,-0.0381,-0.0435,-0.0445,-0.0436,-0.0395,-0.0379,-0.0344,-0.0286,-0.0283,-0.0262,-0.0256,-0.0253,-0.0324,-0.0324,-0.0325,0,-0.0311,-0.0318,-0.0391,-0.0445,-0.0489,-0.0485,-0.0477,-0.0449,-0.0381,-0.0374,-0.037,-0.0307,-0.0303,-0.0281,-0.0276,-0.0274,0,0,0,-0.0335,-0.0355,-0.0409,-0.0462,-0.0512,-0.0488,-0.0473,-0.0455,-0.039,-0.0375,-0.0333,-0.0331,-0.0299,-0.0241,-0.0202,-0.0197,-0.0187,0,0]}]]